Showing default

LUNA-2, 68470

Orbit data source: Space-Track

LUNA-2, 68470 is a payload satellite owned by Aselsan (TR) in SSO that was launched on Mon, 30 Mar 2026 UTC via an FALCON 9 launch vehicle from the Air Force Western Test Range (AFWTR). Payload-class satellites include a variety of spacecraft equipped with specific instruments for various scientific and technological missions. These include communications satellites like Starlink; space stations such as the ISS; scientific satellites like the Hubble; Earth observation satellites from companies like Planet Labs, Umbra, and HawkEye 360; GPS; miniature CubeSats for education and research; and military/defense satellites.

Loading next visibility...
Identifier
68470, 2026-067BG
Orbit
SSO
Country
Flag of TRTR / TURK
Related business
Manufacturer
Aselsan
Mission
Operational Commercial Communications
Bus & Motor
CUBESAT 6U?, Unknown motor
Mass
~12 kg wet, ~12 kg dry
Launch date (UTC)
2026-03-30 (4 months ago)
Launch vehicle
FALCON 9
Launch site
Air Force Western Test Range (AFWTR)
Object type
Payload
Rocket body
Debris
Shape & HBR
Box, 0.2 m
Radar Cross Section
0.080 m², Medium (>0.1 m² and < 1m²)

Expand to show TLE details & history
Last TLE update: 13 hours ago

TLE from 13 hours ago
0 LUNA-2
1 68470U 26067BG  26219.88641705  .00003301  00000-0  16581-3 0  9996
2 68470  97.4506 177.3336 0004948 241.7933 118.2801 15.17962348 19773
Epoch: 2026-08-07T21:16Z
TLE epoch observation values (Epoch: 2026-08-07T21:16:26.433Z)
Latitude
-0.00006°
Longitude
-98.18221°
Altitude
516.703 km
Speed
7.604 km/s
True Right ascension
11h 49m 20s
True Declination
0° 00' 00"
Sunlit
Object was in daylight at epoch
Visualization orbit readout
Latitude
Unknown
Longitude
Unknown
Altitude
Unknown
Speed
Unknown
Apparent Right ascension
Unknown
Apparent Declination
Unknown
Sunlit
N/A
Visualization observer readout
Local Sidereal Time
00:04:23
Azimuth
Unknown
Elevation
Unknown
Doppler factor
Unknown
Orbital elements
Apogee altitude
512.378 km
Perigee altitude
505.562 km
Semi-major axis
6,887.107 km
Eccentricity
0.00049
Inclination
97.4506°
RAAN
177.3336°
Arg. of periapsis
241.7933°
True anomaly
118.33002°
Mean anomaly
118.2801°
Eccentric anomaly
118.30506°
Mean motion
3.79741 °/min
Orbital period
94.8 mins
BSTAR
0.00016581
Loading maneuver chart data...
Computing Atmospheric mass density...
Loading historical data...
Loading historical data...
Loading historical data...
Loading historical data...
Loading historical data...
Loading historical data...
Loading historical data...

Documentation

Showing up to 5 results
|